User: anonymous   Login
Location: Unspecified
(0.0000°N, 0.0000°E)
Time: 09:27:10
(UTC+00:00)
Language:

STRAND 1 - Orbit

View from above orbital plane
View from above orbital plane
View from above satellite
View from above satellite

Ground track
Ground track

The orbit data is extracted from the following two-line orbital elements,

1 39090U 13009E   17327.55823180 +.00000064 +00000-0 +37961-4 0  9996
2 39090 098.5372 171.3873 0009051 181.0006 179.1163 14.34997346248314
Epoch (UTC): 23 November 2017 13:23:51
Eccentricity: 0.0009051
inclination: 98.5372°
perigee height: 768 km
apogee height: 781 km
right ascension of ascending node: 171.3873°
argument of perigee: 181.0006°
revolutions per day: 14.34997346
mean anomaly at epoch: 179.1163°
orbit number at epoch: 24831

The dashed part of the orbit path shows where the satellite is in the earth's shadow,  

DLR